Des Moines, IA

1:00 AM CDT on October 01, 2016 (GMT -0500)
Des Moines International

Weather History for KDSM - July, 2014

Change the Weather History Date:

Saturday, July 5, 2014

  Actual Average Record
Temperature  
Mean Temperature 70 °F 76 °F  
Max Temperature 77 °F 86 °F 106 °F (1936)
Min Temperature 63 °F 67 °F 48 °F (1972)
Degree Days  
Heating Degree Days 0 0  
Month to date heating degree days 2 0  
Since 1 June heating degree days 2 17  
Since 1 July heating degree days 2 0  
Cooling Degree Days 5 11  
Month to date cooling degree days 17 55  
Year to date cooling degree days 404 352  
Since 1 June cooling degree days 273 276  
Growing Degree Days 20 (Base 50)    
Moisture  
Dew Point 63 °F    
Average Humidity 81    
Maximum Humidity 93    
Minimum Humidity 68    
Precipitation  
Precipitation 1.99 in 0.16 in 1.99 in (2014)
Month to date precipitation 2.02 0.78  
Year to date precipitation 20.66 18.90  
Snow  
Snow 0.00 in 0.00 in - ()
Month to date snowfall 0.0 0.0  
Since 1 June snowfall 0.0 0.0  
Since 1 July snowfall 0.0 0.0  
Snow Depth 0.00 in    
Sea Level Pressure  
Sea Level Pressure 30.06 in    
Wind  
Wind Speed 11 mph (SE)    
Max Wind Speed 26 mph    
Max Gust Speed 37 mph    
Visibility 8 miles    
Events Rain , Thunderstorm    
T = Trace of Precipitation, MM = Missing Value Source: NWS Daily Summary

Daily Weather History Graph

Daily Weather History Graph

Search for Another Location

Airport or City:

Trip Planner

Search our weather history database for the weather conditions in past years. The results will help you decide how hot, cold, wet, or windy it might be!

Date:

Astronomy

Jul. 05, 2014 Rise Set
Actual Time 5:46 AM CDT 8:51 PM CDT
Civil Twilight 5:13 AM CDT 9:25 PM CDT
Nautical Twilight 4:30 AM CDT 10:08 PM CDT
Astronomical Twilight 3:39 AM CDT 10:58 PM CDT
Moon 1:48 PM CDT (7/5) 12:38 AM CDT (7/5)
Length of Visible Light 16h 12m
Length of Day
15h 04m
First Quarter, 52% of the Moon is Illuminated
Jul 5
First Quarter
Jul 12
Full
Jul 18
Last Quarter
Jul 26
New
Aug 3
First Quarter

Hourly Weather History & Observations

Time (CDT) Temp. Dew Point Humidity Pressure Visibility Wind Dir Wind Speed Gust Speed Precip Events Conditions
12:54 AM 68.0 °F 57.9 °F 70% 30.16 in 10.0 mi SSE 9.2 mph - N/A   Mostly Cloudy
1:27 AM 68.0 °F 59.0 °F 73% 30.17 in 10.0 mi SSE 10.4 mph - N/A Thunderstorm Thunderstorm
1:54 AM 68.0 °F 59.0 °F 73% 30.15 in 10.0 mi SSE 8.1 mph - N/A Thunderstorm Thunderstorm
2:54 AM 68.0 °F 57.9 °F 70% 30.15 in 10.0 mi East 8.1 mph - N/A Thunderstorm Thunderstorm
3:44 AM 66.9 °F 57.9 °F 73% 30.13 in 10.0 mi SE 12.7 mph - 0.00 in Rain Light Rain
3:54 AM 66.9 °F 59.0 °F 76% 30.11 in 10.0 mi ESE 11.5 mph - 0.00 in   Overcast
4:54 AM 66.0 °F 57.9 °F 75% 30.10 in 10.0 mi SE 13.8 mph - N/A   Overcast
5:54 AM 66.9 °F 57.9 °F 73% 30.09 in 10.0 mi SE 13.8 mph - N/A   Overcast
6:08 AM 66.9 °F 59.0 °F 76% 30.11 in 10.0 mi SE 13.8 mph - 0.00 in Rain , Thunderstorm Light Thunderstorms and Rain
6:43 AM 64.0 °F 60.1 °F 87% 30.15 in 1.8 mi SE 5.8 mph - 0.09 in Rain , Thunderstorm Heavy Thunderstorms and Rain
6:47 AM 64.0 °F 60.1 °F 87% 30.16 in 1.0 mi East 3.5 mph - 0.20 in Rain , Thunderstorm Heavy Thunderstorms and Rain
6:52 AM 62.6 °F 60.8 °F 94% 30.16 in 0.8 mi North 8.1 mph - 0.46 in Rain , Thunderstorm Heavy Thunderstorms and Rain
6:54 AM 63.0 °F 60.1 °F 90% 30.15 in 0.8 mi North 8.1 mph - 0.57 in Rain , Thunderstorm Heavy Thunderstorms and Rain
6:59 AM 63.0 °F 61.0 °F 93% 30.16 in 1.0 mi NNE 4.6 mph - 0.15 in Rain , Thunderstorm Heavy Thunderstorms and Rain
7:20 AM 63.0 °F 61.0 °F 93% 30.16 in 0.8 mi ENE 8.1 mph - 0.60 in Rain , Thunderstorm Heavy Thunderstorms and Rain
7:54 AM 63.0 °F 61.0 °F 93% 30.15 in 2.5 mi NE 6.9 mph - 1.10 in Rain , Thunderstorm Thunderstorms and Rain
8:54 AM 64.0 °F 62.1 °F 93% 30.05 in 2.5 mi SE 23.0 mph 27.6 mph 0.25 in Rain , Thunderstorm Heavy Thunderstorms and Rain
9:05 AM 64.0 °F 62.1 °F 93% 30.04 in 2.5 mi SE 19.6 mph 28.8 mph 0.05 in Rain Rain
9:22 AM 64.0 °F 61.0 °F 90% 29.96 in 6.0 mi ESE 23.0 mph 36.8 mph 0.07 in Rain Light Rain
9:34 AM 64.9 °F 62.1 °F 90% 30.09 in 9.0 mi NNW 16.1 mph 32.2 mph 0.07 in Rain Light Rain
9:44 AM 64.9 °F 62.1 °F 90% 30.11 in 10.0 mi North 8.1 mph 27.6 mph 0.07 in Rain Light Rain
9:54 AM 66.0 °F 62.1 °F 87% 30.08 in 10.0 mi NE 12.7 mph - 0.07 in Rain Light Rain
9:56 AM 66.0 °F 62.1 °F 87% 30.09 in 10.0 mi NE 12.7 mph - 0.00 in Rain Light Rain
10:00 AM 66.0 °F 62.1 °F 87% 30.10 in 10.0 mi NE 6.9 mph - 0.00 in Rain Light Rain
10:32 AM 66.0 °F 62.1 °F 87% 30.09 in 10.0 mi SSE 6.9 mph - 0.00 in   Overcast
10:54 AM 66.0 °F 62.1 °F 87% 30.05 in 10.0 mi SE 9.2 mph - 0.00 in   Overcast
11:54 AM 66.9 °F 62.1 °F 84% 30.06 in 10.0 mi SE 16.1 mph - N/A   Overcast
12:23 PM 66.9 °F 62.1 °F 84% 30.06 in 10.0 mi SE 12.7 mph - 0.00 in   Overcast
12:54 PM 68.0 °F 63.0 °F 84% 30.05 in 10.0 mi SSE 15.0 mph - 0.00 in   Overcast
1:28 PM 69.8 °F 64.4 °F 83% 30.05 in 10.0 mi SSE 12.7 mph 20.7 mph N/A   Overcast
1:54 PM 72.0 °F 66.0 °F 81% 30.01 in 10.0 mi South 13.8 mph - N/A   Overcast
2:54 PM 73.4 °F 66.2 °F 78% 30.02 in 10.0 mi South 11.5 mph - N/A   Overcast
3:06 PM 73.0 °F 66.0 °F 79% 30.01 in 10.0 mi South 11.5 mph - N/A   Overcast
3:54 PM 72.0 °F 66.9 °F 84% 30.00 in 10.0 mi South 10.4 mph - N/A   Overcast
4:39 PM 73.9 °F 66.9 °F 79% 30.00 in 10.0 mi SSE 10.4 mph - N/A   Overcast
4:54 PM 73.9 °F 68.0 °F 82% 29.98 in 10.0 mi South 9.2 mph - N/A   Overcast
5:54 PM 75.9 °F 69.1 °F 79% 29.96 in 10.0 mi SSE 9.2 mph - N/A   Overcast
6:24 PM 77.0 °F 69.1 °F 76% 29.98 in 10.0 mi SSE 8.1 mph - N/A   Overcast
6:54 PM 75.9 °F 69.1 °F 79% 29.96 in 10.0 mi SSE 9.2 mph - N/A   Overcast
7:18 PM 75.9 °F 69.1 °F 79% 29.97 in 10.0 mi SSE 8.1 mph - N/A   Overcast
7:54 PM 75.9 °F 69.1 °F 79% 29.96 in 10.0 mi SE 6.9 mph - N/A   Overcast
8:35 PM 75.0 °F 69.1 °F 82% 29.96 in 10.0 mi SSE 10.4 mph - N/A   Overcast
8:54 PM 75.0 °F 69.1 °F 82% 29.95 in 10.0 mi SSE 8.1 mph - N/A   Overcast
9:54 PM 73.0 °F 66.9 °F 81% 29.96 in 10.0 mi SSE 12.7 mph - N/A   Mostly Cloudy
10:01 PM 73.0 °F 66.9 °F 81% 29.97 in 10.0 mi SSE 12.7 mph - N/A   Overcast
10:54 PM 72.0 °F 66.9 °F 84% 29.95 in 10.0 mi SSE 13.8 mph 19.6 mph N/A   Mostly Cloudy
11:30 PM 71.1 °F 66.9 °F 87% 29.96 in 8.0 mi SSE 9.2 mph - N/A   Mostly Cloudy
11:34 PM 71.1 °F 66.9 °F 87% 29.96 in 8.0 mi SSE 10.4 mph - N/A   Overcast
11:54 PM 71.1 °F 66.9 °F 87% 29.95 in 7.0 mi SSE 10.4 mph - N/A   Scattered Clouds